Sign In / Sign Up
 
 
Guiding Lights Regatta. Leg 1. 19/02 - 25/02



Race Date (UTC) # I place II place III place Track
Race1176 2018-02-20 09:43:38 2 BigT Storken
Race1175 2018-02-20 09:42:46 8 bb1 Sadalsuck Pepe Pinto
Race1174 2018-02-20 09:41:44 2 MicroMagic first28
Race1173 2018-02-20 09:39:27 5 Drugo weis 98
Race1172 2018-02-20 09:37:03 8 Nik fastwind Fiji
Race1171 2018-02-20 09:35:57 8 Atalanta napyca Neo
Race1170 2018-02-20 09:34:04 8 RUS-626 skyandsea PRADA45
Race1169 2018-02-20 09:32:36 2 trieste Fefs
Race1168 2018-02-20 09:30:55 8 Delfina bb1 Neo
Race1167 2018-02-20 09:29:02 6 ku1z3en napyca Atalanta
Race1166 2018-02-20 09:28:09 2 Nik Fefs
Race1165 2018-02-20 09:25:13 5 blid trieste first28
Race1164 2018-02-20 09:23:46 8 bb1 ahab007 Itchy
Race1163 2018-02-20 09:22:53 8 ku1z3en 98 napyca
Race1162 2018-02-20 09:20:50 7 Neo bolina74 Mandy
Race1161 2018-02-20 09:20:01 2 98 Atlanta
Race1160 2018-02-20 09:18:52 6 la yaute Delfina bb1
Race1159 2018-02-20 09:16:09 5 blid ahab007 bolina74
Race1158 2018-02-20 09:14:11 6 trieste Atalanta ITA23
Race1157 2018-02-20 09:11:35 5 la yaute Delfina bb1
Race1156 2018-02-20 09:10:44 8 blid Fiji Aurora
Race1155 2018-02-20 09:08:12 5 Nik trieste ahab007
Race1154 2018-02-20 09:05:55 3 la yaute bb1 boat
Race1153 2018-02-20 09:04:19 8 Lupina Fiji EXIT
Race1152 2018-02-20 09:03:17 3 Nik Rus7 achi49er
Race1151 2018-02-20 09:01:50 8 ahab007 Star Fighter MicroMagic
Race1150 2018-02-20 09:00:36 7 bb1 Girl power theJ
Race1149 2018-02-20 08:59:29 2 TSC-9 Girl power
Race1148 2018-02-20 08:58:22 8 jager Fiji Penalty
Race1147 2018-02-20 08:56:37 5 Nik ITA23 Star Fighter
Race1146 2018-02-20 08:55:20 8 blid AltoSail PRADA45
Race1145 2018-02-20 08:51:50 7 Neo Girl power SAKURA
Race1144 2018-02-20 08:50:39 4 PRADA45 AltoSail ITA23
Race1143 2018-02-20 08:48:25 8 trieste blid EXIT
Race1142 2018-02-20 08:45:49 3 Андрей theJ thrillsurfer
Race1141 2018-02-20 08:44:27 5 sigid PRADA45 Stars and Stripes
Race1140 2018-02-20 08:43:32 8 Penalty Itchy Star Fighter
Race1139 2018-02-20 08:42:27 8 Neo 98 Iván
Race1138 2018-02-20 08:40:31 8 blid Berk A EXIT
Race1137 2018-02-20 08:38:59 2 blid tato grigolia
Race1136 2018-02-20 08:38:25 8 Penalty ahab007 Jeszcze P
Race1135 2018-02-20 08:37:33 8 0 Tituli Fiji trieste
Race1134 2018-02-20 08:35:56 8 Iván 98 MicroMagic
Race1133 2018-02-20 08:33:25 8 Figlio di puttana SAKURA JK7 03:56:90
Race1132 2018-02-20 08:31:46 8 Penalty Mozart Eric_ndc
Race1131 2018-02-20 08:30:10 8 0 Tituli Fiji achterlijk ventje
Race1130 2018-02-20 08:28:03 8 SAKURA Dingo Lazy
Race1129 2018-02-20 08:27:42 8 98 FUK U ku1z3en
Race1128 2018-02-20 08:27:17 8 ITA 24 kirill Elenoire
Race1127 2018-02-20 08:26:22 5 Penalty Eric_ndc PRADA45
Race1126 2018-02-20 08:22:42 8 Over Early BUMBA jager
Race1125 2018-02-20 08:21:40 4 A. de Rosnay 98 KriSStyle
Race1124 2018-02-20 08:20:28 8 JK7 03:56:90 Atalanta ku1z3en
Race1123 2018-02-20 08:18:04 8 Itchy Penalty GIBO ITA
Race1122 2018-02-20 08:16:09 8 Figlio di puttana Over Early 0 Tituli
Race1121 2018-02-20 08:13:58 4 Itchy S.P.M sissa21
Race1120 2018-02-20 08:12:47 8 napyca GN. Sancho Quentin
Race1119 2018-02-20 08:08:41 8 Flapper Over Early Agata 8
Race1118 2018-02-20 08:07:01 6 Argonaftis Itchy ku1z3en
Race1117 2018-02-20 08:05:27 8 007 Fiji achterlijk ventje
Race1116 2018-02-20 08:03:49 8 A. de Rosnay 0 Tituli Agata 8
Race1115 2018-02-20 08:01:34 3 Argonaftis sissa21 A. de Rosnay
Race1114 2018-02-20 08:00:06 8 achterlijk ventje Atalanta Itchy
Race1113 2018-02-20 07:58:47 8 S.P.M Fiji BUL-85
Race1112 2018-02-20 07:56:22 5 Pagani Mattia FUK U 0 Tituli
Race1111 2018-02-20 07:54:31 4 achterlijk ventje JK7 03:56:90 Itchy
Race1110 2018-02-20 07:52:46 8 S.P.M dumaron BUL-85
Race1109 2018-02-20 07:51:21 4 0 Tituli Pagani Mattia KriSStyle
Race1108 2018-02-20 07:49:36 5 dumaron ENJOY-M24 TEMPEST
Race1107 2018-02-20 07:47:43 6 Shaugn JK7 03:56:90 Jore ITA 505
Race1106 2018-02-20 07:45:39 2 dumaron ENJOY-M24
Race1105 2018-02-20 07:43:23 8 Pagani Mattia 50% 0 Tituli
Race1104 2018-02-20 07:40:09 4 Over Early sissa21 Carlo
Race1103 2018-02-20 07:39:09 8 50% El Lemondor 0 Tituli
Race1102 2018-02-20 07:36:48 2 dumaron tato grigolia
Race1101 2018-02-20 07:35:59 8 Lupina Lazy Fiji
Race1100 2018-02-20 07:34:21 2 El Lemondor GBReq
Race1099 2018-02-20 07:31:04 8 Atlanta Pagani Mattia 50%
Race1098 2018-02-20 07:28:25 8 Over Early Lupina ...- - -...
Race1097 2018-02-20 07:26:44 3 ENJOY-M24 MW4 tato grigolia
Race1096 2018-02-20 07:23:52 8 50% Taleggio 0 Tituli
Race1095 2018-02-20 07:22:04 8 Muf don't be angry.....i sail just like u! Jore ITA 505
Race1094 2018-02-20 07:20:03 2 Taleggio Exire
Race1093 2018-02-20 07:18:10 6 panache2 Girl power 50%
Race1092 2018-02-20 07:15:45 8 ...- - -... don't be angry.....i sail just like u! Lazy
Race1091 2018-02-20 07:14:26 8 Albarone E Daje Muf
Race1090 2018-02-20 07:11:41 4 panache2 Girl power Ilija
Race1089 2018-02-20 07:09:36 8 El Lemondor Fiji Зюзя
Race1088 2018-02-20 07:05:47 6 Muf achterlijk ventje Aquaphobia
Race1087 2018-02-20 07:03:25 8 dumaron El Lemondor Lazy
Race1086 2018-02-20 07:01:42 2 dumaron panache2
Race1085 2018-02-20 07:00:53 8 Aquaphobia Fiji S.P.M
Race1084 2018-02-20 06:58:19 2 ...- - -... AltoSail
Race1083 2018-02-20 06:56:25 2 GIBO ITA PISKAREV GALOPIN SB3324RUS
Race1082 2018-02-20 06:55:29 3 S.P.M panache2 dumaron
Race1081 2018-02-20 06:53:42 8 OCS RS Softbank Lazy
Race1080 2018-02-20 06:49:46 4 achterlijk ventje Cthulhu kong
Race1079 2018-02-20 06:47:16 8 Softbank dumaron Mcdrioli
Race1078 2018-02-20 06:44:01 6 achterlijk ventje kong Foot Loose
Race1077 2018-02-20 06:42:33 4 Petsunder MAGJA Mcdrioli